Location: Hertford
(51.8000°N, 0.0667°W)
Time: 01:43:13
(UTC+00:00)

Nadezhda 4 Rocket - Pass Details

Date: 18 September 2020
Orbit: 949 x 992 km, 82.9° (Epoch: 30 October)

Event Time Altitude Azimuth Distance (km) Brightness Sun altitude
Rises 18:49:01 0° 353° (N) 3,645 7.3 -7.3°
Reaches altitude 10° 18:51:43 10° 1° (N) 2,691 6.5 -7.7°
Maximum altitude 18:57:26 39° 69° (ENE) 1,395 4.5 -8.5°
Drops below altitude 10° 19:03:06 10° 138° (SE) 2,672 5.8 -9.4°
Enters shadow 19:04:43 - 143° (SE) 3,237 6.3 -9.6°
